#timestamp,LO_Frequency,Hit 
1499706015.7,286047285.8,N
1499706035.6,286047285.7,N
1499706055.4,286047283.7,N
1499706075.2,286047283.2,N
1499706095.1,286047286.0,N
1499706096.0,286047286.0,N
1499706115.8,286047285.4,N
1499706135.6,286047283.4,N
1499706155.5,286047284.8,N
1499706175.3,286047284.8,N
1499706195.2,286047285.0,N
1499706215.9,286047285.3,N
1499706235.7,286047285.2,N
1499706255.6,286047285.7,N
1499706275.4,286047284.9,N
1499706295.2,286047284.7,N
1499706315.1,286047286.1,N
1499706316.0,286047286.1,N
1499706335.8,286047288.7,N
1499706355.7,286047288.7,N
1499706375.5,286047288.4,N
1499706395.3,286047288.7,N
1499706415.2,286047286.9,N
1499706435.0,286047287.4,N
1499706435.9,286047287.4,N
1499706455.7,286047289.2,N
1499706475.6,286047286.7,N
1499706495.4,286047288.4,N
1499706515.3,286047288.7,N
1499706535.1,286047288.8,N
1499706536.0,286047288.8,N
1499706555.8,286047289.1,N
1499706575.7,286047289.1,N
1499706595.5,286047288.0,N
1499706615.3,286047288.4,N
1499706635.2,286047288.6,N
1499706655.0,286047290.4,N
1499706655.9,286047290.4,N
1499706675.8,286047289.8,N
1499706695.6,286047291.4,N
1499706715.4,286047291.4,N
1499706735.3,286047289.7,N
1499706755.1,286047291.7,N
1499706775.8,286047292.2,N
1499706795.7,286047292.0,N
1499706815.5,286047291.6,N
1499706835.4,286047293.3,N
1499706855.2,286047292.5,N
1499706875.0,286047293.9,N
1499706875.9,286047293.9,N
1499706895.8,286047291.9,N
1499706915.6,286047291.1,N
1499706935.4,286047293.7,N
1499706955.3,286047293.6,N
1499706975.1,286047295.6,N
1499706995.9,286047295.6,N
1499707015.7,286047293.9,N
1499707035.5,286047292.9,N
1499707055.4,286047293.1,N
1499707075.2,286047292.9,N
1499707095.0,286047293.0,N
1499707095.9,286047293.0,N
1499707115.8,286047293.4,N
1499707135.6,286047294.7,N
1499707155.5,286047294.5,N
1499707175.3,286047295.3,N
1499707195.1,286047295.6,N
1499707215.9,286047292.8,N
1499707235.7,286047293.9,N
1499707255.6,286047293.0,N
1499707275.4,286047294.5,N
1499707295.2,286047294.6,N
1499707315.1,286047295.2,N
1499707316.0,286047295.2,N
1499707335.8,286047292.7,N
1499707355.6,286047295.5,N
1499707375.5,286047297.0,N
1499707395.3,286047294.2,N
1499707415.2,286047294.2,N
1499707435.9,286047294.2,N
1499707455.7,286047295.5,N
1499707475.6,286047297.2,N
1499707495.4,286047295.4,N
1499707515.2,286047294.5,N
1499707535.1,286047294.1,N
1499707536.0,286047294.1,N
1499707555.8,286047298.6,N
1499707575.7,286047298.0,N
1499707595.5,286047295.9,N
1499707615.3,286047294.1,N
1499707635.2,286047297.0,N
1499707655.0,286047297.0,N
1499707655.9,286047297.0,N
1499707675.7,286047298.8,N
1499707695.6,286047296.1,N
1499707715.4,286047296.0,N
1499707735.3,286047294.2,N
1499707755.1,286047294.4,N
1499707756.0,286047294.4,N
1499707775.8,286047295.2,N
1499707795.7,286047294.2,N
1499707815.5,286047296.8,N
1499707835.3,286047295.8,N
1499707855.2,286047297.9,N
1499707875.0,286047298.3,N
1499707875.9,286047298.3,N
1499707895.8,286047297.9,N
1499707915.6,286047298.0,N
1499707935.4,286047298.7,N
1499707955.3,286047298.2,N
1499707975.1,286047298.8,N
1499707995.8,286047298.5,N
1499708015.7,286047300.3,N
1499708035.5,286047299.7,N
1499708055.4,286047298.5,N
1499708075.2,286047299.7,N
1499708095.0,286047300.2,N
1499708095.9,286047300.2,N
1499708115.8,286047299.4,N
1499708135.6,286047299.6,N
1499708155.4,286047300.0,N
1499708175.3,286047297.8,N
1499708195.1,286047300.2,N
1499708215.9,286047299.5,N
1499708235.7,286047299.2,N
1499708255.5,286047299.3,N
1499708275.4,286047299.5,N
1499708295.2,286047299.1,N
1499708315.0,286047299.7,N
1499708315.9,286047299.7,N
1499708335.8,286047301.1,N
1499708355.6,286047301.2,N
1499708375.5,286047303.4,N
1499708395.3,286047301.2,N
1499708415.1,286047301.3,N
1499708435.9,286047300.4,N
1499708455.7,286047300.1,N
1499708475.5,286047299.7,N
1499708495.4,286047299.9,N
1499708515.2,286047300.0,N
1499708535.1,286047298.3,N
1499708536.0,286047298.3,N
1499708555.8,286047298.1,N
1499708575.6,286047298.1,N
1499708595.5,286047300.2,N
1499708615.3,286047297.3,N
1499708635.1,286047297.8,N
1499708655.9,286047297.5,N
1499708675.7,286047299.5,N
1499708695.5,286047301.5,N
1499708715.4,286047301.7,N
1499708735.2,286047301.1,N
1499708755.1,286047300.8,N
1499708756.0,286047300.8,N
1499708775.8,286047303.1,N
1499708795.6,286047304.9,N
1499708815.5,286047302.2,N
1499708835.3,286047304.8,N
1499708855.1,286047305.0,N
1499708875.9,286047304.2,N
1499708895.7,286047304.8,N
1499708915.6,286047304.9,N
1499708935.4,286047305.2,N
1499708955.2,286047306.8,N
1499708975.1,286047304.1,N
1499708976.0,286047304.1,N
1499708995.8,286047304.8,N
1499709015.6,286047302.6,N
1499709035.5,286047302.3,N
1499709055.3,286047302.4,N
1499709075.2,286047304.6,N
1499709095.9,286047304.9,N
1499709115.7,286047304.7,N
1499709135.6,286047302.4,N
1499709155.4,286047305.0,N
1499709175.2,286047304.7,N
1499709195.1,286047302.3,N
1499709196.0,286047302.3,N
1499709215.8,286047305.0,N
1499709235.7,286047302.9,N
1499709255.5,286047303.1,N
1499709275.3,286047302.2,N
1499709295.2,286047304.7,N
1499709315.0,286047305.0,N
1499709315.9,286047305.0,N
1499709335.7,286047304.8,N
1499709355.6,286047302.8,N
1499709375.4,286047302.4,N
1499709395.3,286047302.9,N
1499709415.1,286047302.7,N
1499709435.8,286047302.4,N
1499709455.7,286047302.8,N
1499709475.5,286047302.7,N
1499709495.4,286047302.1,N
1499709515.2,286047302.1,N
1499709535.0,286047303.0,N
1499709535.9,286047303.0,N
1499709555.8,286047303.3,N
1499709575.6,286047302.9,N
1499709595.4,286047305.2,N
